SCP
-0 -0 -0 -0 -0 -0 -0 -0 -0 -0 -0 -0 -0 -0 -0 -0 -0 -0 0 0 0 0 0 0 0 -0 -0 0 -0 0 0 0 0 0 0 0 -0 -0 -0 -0 -0 0 -0 -0 0 0 -0
0 0 0 0 0 -0 -0 -0 -0 -0 -0 -0 -0 -0 -0 -0 -0 -0 -0 -0 0 0 0 0 -0 0 -0 0 0 0 0 -0 0 0 0 0 -0 0 -0 -0 -0 -0 0 -0 0 0 0
0 0 0 0 0 0 0 0 0 -0 -0 -0 -0 -0 -0 -0 -0 -0 0 0 -0 0 0 -0 -0 0 0 0 0 0 0 0 0 -0 0 0 0 0 0 0 0 -0 -0 -0 -0 0 0
0 0 0 0 0 0 0 0 0 0 0 -0 -0 -0 -0 -0 -0 -0 0 0 0 0 -0 -0 0 0 0 0 0 0 0 0 0 0 0 0 0 0 -0 0 0 0 0 -0 0 0 0
0 0 0 0 0 0 0 0 0 0 0 0 0 -0 -0 -0 -0 -0 0 -0 0 0 0 0 0 0 0 0 0 0 0 0 0 0 0 0 0 -0 0 -0 -0 0 -0 0 0 -0 0
0 0 0 0 0 0 0 0 0 0 0 0 0 0 -0 -0 -0 0 -0 0 -0 0 0 0 0 0 0 0 0 0 0 0 0 0 0 0 0 -0 0 -0 0 -0 -0 0 -0 -0 0
0 0 0 0 0 0 0 0 0 0 0 0 0 0 0 0 0 0 0 0 0 0 0 0 0 0 0 0 0 0 0 0 0 -0 -0 0 -0 -0 -0 0 0 -0 -0 0 -0 -0 0
0 0 0 0 0 0 0 0 0 0 0 0 0 0 0 0 0 0 0 0 0 0 -0 0 0 0 0 0 0 0 0 0 0 0 0 0 -0 -0 0 0 0 0 0 -0 0 -0 -0
0 0 0 0 0 0 0 0 0 0 0 0 0 0 0 0 0 0 0 0 0 0 0 0 0 0 0 0 0 0 0 0 0 0 0 0 0 -0 -0 0 0 0 0 0 0 0 0
0 0 0 0 0 0 0 0 0 0 0 0 0 0 0 0 0 0 0 0 0 0 0 0 0 -0 0 0 0 0 0 0 0 0 0 0 0 -0 0 0 0 0 0 0 0 0 0
0 0 0 0 0 0 0 0 0 0 0 0 0 0 0 0 0 0 0 0 0 0 0 0 -0 0 0 0 0 0 0 0 0 0 0 0 0 0 0 -0 0 0 0 0 0 0 0
0 0 0 0 0 0 0 0 0 0 0 0 0 0 0 0 0 0 0 0 0 0 0 0 0 0 0 0 0 0 0 0 0 0 0 0 0 0 -0 0 0 0 0 0 0 0 0
0 0 0 0 0 0 0 0 0 0 0 0 0 0 0 0 0 0 0 0 0 0 0 0 0 0 0 0 0 0 0 0 0 0 0 0 0 0 0 0 -0 0 0 0 0 0 0
0 0 0 0 0 0 0 0 0 0 0 0 0 0 0 0 0 0 0 0 0 0 0 0 0 0 0 0 0 0 0 0 0 0 0 0 0 0 0 0 -0 -0 0 0 0 0 0
0 0 0 0 0 0 0 0 0 0 0 0 0 -0 0 0 0 0 0 0 0 0 0 0 -0 -0 0 0 0 0 0 0 0 0 0 0 0 0 0 0 -0 0 0 0 0 0 0
0 0 0 0 0 0 0 0 0 0 0 0 -0 0 0 0 0 0 0 0 0 0 0 0 0 -0 0 0 0 0 0 0 0 0 0 0 0 0 0 0 0 0 0 0 0 0 0
0 0 0 0 0 0 0 0 0 0 0 0 -0 0 0 0 0 0 0 0 0 0 0 0 0 0 0 -0 -0 0 -0 0 0 0 0 0 0 0 0 0 0 0 0 0 0 0 0
0 0 0 0 0 0 0 0 0 0 0 -0 0 0 0 0 0 0 0 0 0 0 0 0 0 0 0 0 -0 0 0 0 0 0 0 0 0 0 0 0 0 0 0 0 0 0 0
0 0 0 0 0 0 0 0 0 0 0 -0 0 0 0 0 0 0 0 0 0 0 0 0 0 0 0 0 0 0 0 0 0 0 0 0 0 0 0 0 0 0 0 0 0 0 0
0 0 0 0 0 0 0 0 0 0 0 0 0 0 0 0 0 0 0 0 0 0 0 0 0 0 0 0 0 0 0 0 0 0 -0 0 0 0 0 0 0 0 0 0 0 0 0
0 0 0 0 0 0 0 0 0 0 0 0 0 0 0 0 0 0 0 0 0 0 0 0 0 0 0 0 0 0 0 0 0 0 0 0 0 0 0 0 0 0 0 0 0 0 0
0 0 0 0 0 0 0 0 0 0 0 0 0 0 0 0 0 0 0 0 0 0 0 0 0 0 0 0 0 0 0 -0 0 0 0 0 0 0 0 0 0 0 0 0 0 0 0
0 0 0 0 0 0 0 0 0 0 0 0 0 0 0 0 0 0 0 0 0 0 0 0 0 0 0 0 0 0 0 0 0 0 0 0 0 0 0 0 0 0 0 0 0 0 0
0 0 0 0 0 0 0 0 0 0 0 0 0 0 0 0 0 0 0 0 0 0 0 0 0 0 0 0 0 0 0 -0 -0 -0 0 0 0 0 0 0 0 0 0 0 0 0 0
0 0 0 0 0 0 0 0 0 0 0 0 0 0 0 0 0 0 0 0 0 0 0 0 0 0 0 0 0 0 0 0 0 0 0 -0 0 0 0 0 0 0 0 0 0 0 0
0 0 0 0 0 0 0 0 0 0 0 0 0 0 0 0 0 0 0 0 0 0 0 0 0 0 0 0 0 0 0 -0 -0 0 0 -0 -0 0 0 0 0 0 0 0 0 0 0
0 0 0 0 0 0 0 0 0 0 0 0 0 0 0 0 0 0 0 0 0 0 0 0 0 0 0 0 0 0 0 0 0 0 0 0 0 0 0 0 0 0 0 0 0 0 0
0 0 0 0 0 0 0 0 0 0 0 0 0 0 0 0 -0 0 0 0 0 0 0 0 0 0 0 0 0 0 0 0 0 0 -0 0 0 0 0 0 0 0 0 0 0 0 0
0 0 -0 -0 -0 -0 -0 0 0 0 0 0 0 0 0 0 0 -0 0 0 0 0 0 0 0 0 0 0 0 0 0 0 0 0 0 0 0 0 0 0 0 0 0 0 0 0 0
Wind_Speed_500mb
38 37 36 35 34 33 33 36 40 41 39 38 39 43 44 44 43 42 41 40 41 41 43 43 45 43 40 18 42 29 34 18 27 54 52 38 21 14 8 11 19 14 7 41 48 50 52
36 39 41 43 43 41 38 36 36 40 44 43 39 39 43 44 46 46 45 44 41 44 45 45 46 46 31 13 15 21 21 17 32 56 53 37 15 17 5 8 3 12 19 34 44 38 35
35 35 36 37 41 45 46 45 42 38 40 46 45 42 43 44 45 48 47 46 47 47 46 48 45 44 35 50 32 32 16 20 27 46 48 36 31 10 3 14 13 49 13 17 7 13 14
43 42 40 39 39 39 41 45 48 47 42 42 46 47 45 44 46 47 49 47 48 50 50 44 40 31 25 34 30 32 21 21 22 35 33 24 16 14 9 11 11 14 9 20 8 13 27
42 45 47 45 42 42 43 43 45 47 49 47 46 46 47 47 46 48 47 47 47 51 49 23 14 13 25 16 20 29 27 24 22 28 31 21 9 12 9 11 10 12 29 8 10 22 9
47 46 47 48 47 45 44 45 46 48 48 48 49 50 47 48 49 51 44 45 46 34 20 16 14 11 21 6 11 21 30 25 17 22 23 22 15 7 6 9 14 27 13 16 26 31 13
48 49 49 50 49 49 49 47 45 47 49 50 51 51 50 46 48 49 46 41 15 7 26 25 40 47 70 43 35 24 25 34 34 21 13 12 7 14 22 15 14 23 9 29 25 13 11
48 48 48 48 50 51 50 50 50 48 49 49 52 51 52 47 47 43 36 8 7 15 34 59 72 73 75 62 32 37 23 31 17 13 9 4 16 20 15 12 16 10 10 15 6 13 12
50 49 49 51 51 51 52 50 51 51 49 47 48 52 56 44 45 32 17 17 12 33 12 45 58 65 84 56 40 55 31 33 9 12 11 13 11 16 13 10 14 11 12 10 14 18 11
51 50 50 51 51 50 51 53 52 51 49 48 46 47 50 52 26 18 20 10 20 29 6 16 11 13 36 38 18 49 52 34 8 23 12 12 17 16 10 9 14 7 17 15 18 32 15
49 49 51 52 52 49 50 50 54 55 56 53 49 45 47 47 45 31 19 17 16 4 10 10 10 9 17 47 13 40 49 46 25 12 15 16 14 14 10 14 14 19 13 15 18 30 12
48 47 51 52 53 52 50 51 52 54 56 55 52 45 57 44 43 23 9 25 5 9 15 14 8 6 7 13 15 16 42 48 38 12 6 22 12 13 17 11 16 6 8 14 11 9 10
48 49 50 50 52 52 52 52 54 56 57 58 60 46 50 55 42 29 23 22 7 9 9 10 7 10 5 2 18 8 13 21 22 15 11 6 16 8 8 10 8 11 13 5 6 3 11
48 48 49 49 49 50 50 53 57 59 59 59 64 52 50 48 39 36 18 6 10 15 16 11 12 17 6 4 10 8 12 24 15 9 11 13 19 18 8 18 16 14 20 13 14 9 12
50 48 47 50 50 49 50 53 56 62 63 63 67 57 52 36 26 34 22 6 15 13 8 7 10 9 9 7 9 9 13 27 30 22 17 13 16 9 13 13 21 11 9 18 12 2 7
47 46 46 48 49 49 49 50 54 61 63 61 70 62 35 19 17 42 7 14 13 11 9 7 2 4 5 6 14 12 7 12 25 24 14 18 5 14 16 12 12 25 14 4 3 12 11
44 45 45 48 50 49 48 49 52 58 63 58 53 29 13 11 24 23 9 16 14 23 24 7 5 10 10 12 13 5 16 19 22 28 29 17 12 16 11 15 20 4 5 7 9 8 14
49 47 45 45 47 51 46 44 48 53 62 52 25 8 20 28 2 4 7 14 8 11 23 9 8 12 11 11 14 11 20 21 38 34 25 20 14 21 24 11 7 15 22 20 15 11 2
48 45 47 45 46 48 47 43 41 44 50 57 37 20 10 24 4 6 11 8 5 5 13 8 10 9 12 19 12 13 21 48 52 40 36 18 10 10 14 8 2 10 13 11 8 8 16
51 47 46 45 43 42 45 43 41 39 39 45 14 7 9 13 7 3 10 12 9 12 12 19 14 14 19 9 17 16 29 30 45 30 74 39 11 30 28 18 11 11 12 14 16 11 12
52 55 47 43 41 40 41 43 42 36 34 28 9 9 6 8 5 12 6 8 10 7 10 22 8 23 17 15 9 9 21 19 24 22 17 30 23 17 41 30 13 12 11 15 15 18 18
53 52 39 36 39 38 38 40 36 38 31 12 10 11 18 21 24 9 4 6 7 5 7 14 15 19 16 14 9 6 11 12 13 17 14 12 13 17 15 24 27 21 29 25 28 13 8
46 42 39 38 39 39 38 37 35 34 29 7 10 13 9 18 9 6 5 9 18 23 18 30 20 9 8 7 20 15 37 40 22 7 9 2 19 12 33 11 14 10 17 32 13 1 14
45 44 44 40 40 38 36 31 34 32 23 18 15 16 9 10 7 8 20 32 30 19 16 26 37 10 7 31 32 24 23 26 13 14 7 6 10 1 25 11 14 10 8 26 21 9 5
51 48 48 43 41 37 34 35 30 29 24 28 27 11 10 8 11 27 16 15 37 33 8 16 24 31 42 21 5 6 7 7 9 4 8 7 8 6 11 11 5 7 7 7 16 9 6
50 48 49 47 47 42 41 37 34 27 27 31 32 25 17 10 12 6 18 29 9 9 11 13 30 22 14 5 4 7 11 5 6 12 4 5 13 8 6 15 11 5 12 33 21 3 13
43 43 46 43 43 34 35 30 32 30 28 32 28 19 16 15 43 35 10 9 18 9 7 14 24 20 20 4 4 1 7 6 12 7 8 8 7 9 6 9 5 9 28 22 15 10 19
42 40 38 33 35 41 36 29 27 29 27 31 32 20 21 16 60 67 56 28 24 12 4 22 20 6 6 8 4 6 3 6 5 11 11 4 5 6 4 8 5 39 10 11 7 20 24
39 36 36 33 28 31 27 27 28 27 26 27 34 18 16 27 43 43 71 77 73 60 33 14 10 7 6 5 4 1 5 6 7 6 5 8 3 10 4 7 8 19 36 43 47 61 61
Wind_Direction_500mb
349 348 346 342 339 337 332 330 328 327 325 324 324 322 320 319 316 314 313 316 319 318 317 317 317 316 320 287 267 304 266 267 204 195 199 203 168 170 181 201 240 208 168 185 154 152 146
345 343 342 340 339 337 337 334 329 326 324 323 324 323 319 317 316 313 310 311 314 314 313 314 311 307 305 266 290 309 238 232 200 197 200 199 201 207 261 254 256 155 145 134 153 159 148
343 339 336 334 334 334 333 331 329 327 323 322 323 323 321 317 314 312 310 310 313 310 310 311 305 298 282 271 281 272 234 197 213 211 210 206 209 243 10 319 337 134 97 78 117 151 122
343 340 338 336 333 330 327 326 326 326 325 321 320 320 318 318 316 312 309 312 311 308 307 304 299 288 265 287 260 239 207 206 228 219 222 221 223 251 202 294 66 96 39 141 227 169 167
343 339 337 335 334 332 328 325 323 322 323 322 319 317 316 316 316 313 310 314 309 305 303 297 296 289 266 269 257 209 208 221 224 219 219 217 223 213 164 106 33 52 171 212 182 206 139
341 340 336 332 332 332 328 326 325 323 321 320 319 317 318 317 316 313 313 316 311 305 299 295 264 287 260 292 337 317 233 218 226 201 214 228 206 139 61 115 176 180 189 208 170 201 183
338 338 337 335 332 329 327 326 323 322 323 321 319 318 318 318 317 315 317 332 340 322 307 267 269 272 278 275 288 274 247 215 224 186 162 194 143 195 197 185 147 152 186 204 203 179 130
338 335 333 333 332 328 325 325 323 322 323 322 320 318 317 320 317 314 317 10 54 329 295 284 276 268 262 263 282 259 250 198 179 197 149 85 213 211 185 148 134 142 178 203 321 166 96
337 335 333 333 332 330 325 323 322 323 324 322 320 318 317 321 315 312 324 321 281 321 258 288 266 250 244 236 232 251 241 223 159 183 185 173 229 155 181 159 144 164 175 194 187 153 43
336 335 335 334 333 331 328 324 323 324 326 322 320 318 318 321 319 315 328 328 309 312 331 278 267 273 209 202 228 231 232 221 201 198 157 215 246 167 176 196 137 239 202 214 135 158 194
334 335 336 335 335 333 331 330 329 328 327 324 317 321 314 317 308 310 305 310 289 262 330 261 275 315 193 171 171 224 223 204 196 199 145 233 205 188 175 194 145 230 154 199 172 183 123
332 332 333 335 336 335 334 331 330 326 324 321 315 319 310 309 301 320 277 336 237 48 253 305 300 337 115 222 192 170 189 209 208 205 193 210 229 176 193 218 172 216 102 40 51 127 188
328 329 331 333 332 332 331 331 329 326 323 320 313 311 300 297 289 290 285 317 72 169 322 277 316 344 146 284 214 183 164 184 179 175 214 175 239 215 165 240 133 95 81 330 336 9 214
325 324 325 327 328 327 328 329 329 326 323 319 311 311 297 286 284 268 258 62 207 221 244 305 321 341 352 145 250 215 168 198 231 120 182 171 228 193 197 187 178 180 162 164 190 203 225
324 324 323 325 327 326 326 329 329 325 326 323 315 314 302 304 261 219 180 178 206 203 221 291 336 359 319 38 12 165 211 212 210 181 188 164 253 279 212 189 165 208 161 197 140 357 92
321 323 321 321 324 327 326 327 329 328 327 328 326 322 310 326 234 178 123 229 219 223 343 20 203 224 291 16 11 35 298 211 220 184 169 213 254 215 235 177 231 203 167 102 1 168 232
313 317 319 319 322 325 325 328 332 332 329 330 331 320 319 305 176 184 184 221 238 254 289 224 251 270 253 304 200 235 240 281 244 219 195 158 157 264 158 196 205 126 176 70 132 143 174
307 309 312 316 320 324 327 327 332 336 334 332 346 324 333 149 252 236 191 200 217 266 303 282 269 257 251 273 266 255 251 240 262 212 182 200 176 230 227 226 189 184 201 183 207 240 190
312 308 308 310 317 321 326 326 330 338 344 341 323 280 237 202 221 263 296 296 299 234 238 223 252 238 336 294 291 223 267 276 264 221 196 172 205 206 323 331 97 181 187 173 124 97 184
306 306 306 308 309 317 321 325 326 332 338 331 300 319 305 237 279 43 358 274 258 266 254 257 243 242 260 252 208 284 291 285 299 207 201 161 143 204 223 217 161 185 186 195 154 139 168
297 306 304 305 309 309 315 322 324 323 334 332 254 262 332 308 328 328 225 278 283 269 256 270 256 213 207 205 226 240 275 304 332 32 217 167 191 178 225 215 189 218 208 203 172 177 171
301 304 309 315 315 317 320 318 323 328 334 331 304 341 335 297 297 300 220 249 273 338 272 285 218 201 199 184 188 252 337 309 255 322 358 175 227 156 228 210 197 230 246 210 228 160 125
302 300 301 301 303 305 304 312 324 332 338 332 304 306 302 287 308 333 233 344 301 315 268 236 282 284 225 259 292 205 249 249 250 239 312 171 186 141 224 181 170 219 222 195 157 59 143
300 299 298 295 297 299 300 304 305 317 322 316 295 316 280 276 280 274 317 310 298 299 263 284 291 245 243 317 309 263 263 238 206 211 147 215 192 201 209 114 202 236 308 142 114 114 84
292 292 291 293 290 286 294 289 290 300 307 302 301 268 271 274 281 298 300 309 304 304 257 257 277 294 285 305 35 320 289 227 204 85 59 243 130 111 148 166 182 357 360 288 137 343 23
296 291 283 282 284 286 287 284 280 282 293 291 297 260 231 288 246 250 318 293 296 313 323 267 316 326 276 90 102 160 186 278 283 332 155 176 95 114 158 140 183 217 328 348 297 60 20
291 289 282 280 276 282 283 274 278 276 278 285 288 240 264 260 269 274 248 306 296 316 270 298 341 323 13 49 72 137 277 237 139 314 319 335 8 70 348 104 172 11 326 320 74 236 26
294 288 292 285 280 275 280 271 282 272 273 279 286 233 251 261 273 268 270 271 292 283 295 321 341 294 357 60 109 228 241 289 88 153 142 83 44 16 358 73 55 350 357 96 205 84 91
285 293 285 282 273 274 280 279 273 269 272 269 282 215 262 262 262 275 280 279 271 260 270 303 279 286 343 68 0 348 292 355 22 103 211 65 169 143 202 178 279 342 70 95 96 89 79
Wind_Speed_850mb
38 37 36 35 34 33 33 36 40 41 39 38 39 43 44 44 43 42 41 40 41 41 43 43 45 43 40 18 42 29 34 18 27 54 52 38 21 14 8 11 19 14 7 41 48 50 52
36 39 41 43 43 41 38 36 36 40 44 43 39 39 43 44 46 46 45 44 41 44 45 45 46 46 31 13 15 21 21 17 32 56 53 37 15 17 5 8 3 12 19 34 44 38 35
35 35 36 37 41 45 46 45 42 38 40 46 45 42 43 44 45 48 47 46 47 47 46 48 45 44 35 50 32 32 16 20 27 46 48 36 31 10 3 14 13 49 13 17 7 13 14
43 42 40 39 39 39 41 45 48 47 42 42 46 47 45 44 46 47 49 47 48 50 50 44 40 31 25 34 30 32 21 21 22 35 33 24 16 14 9 11 11 14 9 20 8 13 27
42 45 47 45 42 42 43 43 45 47 49 47 46 46 47 47 46 48 47 47 47 51 49 23 14 13 25 16 20 29 27 24 22 28 31 21 9 12 9 11 10 12 29 8 10 22 9
47 46 47 48 47 45 44 45 46 48 48 48 49 50 47 48 49 51 44 45 46 34 20 16 14 11 21 6 11 21 30 25 17 22 23 22 15 7 6 9 14 27 13 16 26 31 13
48 49 49 50 49 49 49 47 45 47 49 50 51 51 50 46 48 49 46 41 15 7 26 25 40 47 70 43 35 24 25 34 34 21 13 12 7 14 22 15 14 23 9 29 25 13 11
48 48 48 48 50 51 50 50 50 48 49 49 52 51 52 47 47 43 36 8 7 15 34 59 72 73 75 62 32 37 23 31 17 13 9 4 16 20 15 12 16 10 10 15 6 13 12
50 49 49 51 51 51 52 50 51 51 49 47 48 52 56 44 45 32 17 17 12 33 12 45 58 65 84 56 40 55 31 33 9 12 11 13 11 16 13 10 14 11 12 10 14 18 11
51 50 50 51 51 50 51 53 52 51 49 48 46 47 50 52 26 18 20 10 20 29 6 16 11 13 36 38 18 49 52 34 8 23 12 12 17 16 10 9 14 7 17 15 18 32 15
49 49 51 52 52 49 50 50 54 55 56 53 49 45 47 47 45 31 19 17 16 4 10 10 10 9 17 47 13 40 49 46 25 12 15 16 14 14 10 14 14 19 13 15 18 30 12
48 47 51 52 53 52 50 51 52 54 56 55 52 45 57 44 43 23 9 25 5 9 15 14 8 6 7 13 15 16 42 48 38 12 6 22 12 13 17 11 16 6 8 14 11 9 10
48 49 50 50 52 52 52 52 54 56 57 58 60 46 50 55 42 29 23 22 7 9 9 10 7 10 5 2 18 8 13 21 22 15 11 6 16 8 8 10 8 11 13 5 6 3 11
48 48 49 49 49 50 50 53 57 59 59 59 64 52 50 48 39 36 18 6 10 15 16 11 12 17 6 4 10 8 12 24 15 9 11 13 19 18 8 18 16 14 20 13 14 9 12
50 48 47 50 50 49 50 53 56 62 63 63 67 57 52 36 26 34 22 6 15 13 8 7 10 9 9 7 9 9 13 27 30 22 17 13 16 9 13 13 21 11 9 18 12 2 7
47 46 46 48 49 49 49 50 54 61 63 61 70 62 35 19 17 42 7 14 13 11 9 7 2 4 5 6 14 12 7 12 25 24 14 18 5 14 16 12 12 25 14 4 3 12 11
44 45 45 48 50 49 48 49 52 58 63 58 53 29 13 11 24 23 9 16 14 23 24 7 5 10 10 12 13 5 16 19 22 28 29 17 12 16 11 15 20 4 5 7 9 8 14
49 47 45 45 47 51 46 44 48 53 62 52 25 8 20 28 2 4 7 14 8 11 23 9 8 12 11 11 14 11 20 21 38 34 25 20 14 21 24 11 7 15 22 20 15 11 2
48 45 47 45 46 48 47 43 41 44 50 57 37 20 10 24 4 6 11 8 5 5 13 8 10 9 12 19 12 13 21 48 52 40 36 18 10 10 14 8 2 10 13 11 8 8 16
51 47 46 45 43 42 45 43 41 39 39 45 14 7 9 13 7 3 10 12 9 12 12 19 14 14 19 9 17 16 29 30 45 30 74 39 11 30 28 18 11 11 12 14 16 11 12
52 55 47 43 41 40 41 43 42 36 34 28 9 9 6 8 5 12 6 8 10 7 10 22 8 23 17 15 9 9 21 19 24 22 17 30 23 17 41 30 13 12 11 15 15 18 18
53 52 39 36 39 38 38 40 36 38 31 12 10 11 18 21 24 9 4 6 7 5 7 14 15 19 16 14 9 6 11 12 13 17 14 12 13 17 15 24 27 21 29 25 28 13 8
46 42 39 38 39 39 38 37 35 34 29 7 10 13 9 18 9 6 5 9 18 23 18 30 20 9 8 7 20 15 37 40 22 7 9 2 19 12 33 11 14 10 17 32 13 1 14
45 44 44 40 40 38 36 31 34 32 23 18 15 16 9 10 7 8 20 32 30 19 16 26 37 10 7 31 32 24 23 26 13 14 7 6 10 1 25 11 14 10 8 26 21 9 5
51 48 48 43 41 37 34 35 30 29 24 28 27 11 10 8 11 27 16 15 37 33 8 16 24 31 42 21 5 6 7 7 9 4 8 7 8 6 11 11 5 7 7 7 16 9 6
50 48 49 47 47 42 41 37 34 27 27 31 32 25 17 10 12 6 18 29 9 9 11 13 30 22 14 5 4 7 11 5 6 12 4 5 13 8 6 15 11 5 12 33 21 3 13
43 43 46 43 43 34 35 30 32 30 28 32 28 19 16 15 43 35 10 9 18 9 7 14 24 20 20 4 4 1 7 6 12 7 8 8 7 9 6 9 5 9 28 22 15 10 19
42 40 38 33 35 41 36 29 27 29 27 31 32 20 21 16 60 67 56 28 24 12 4 22 20 6 6 8 4 6 3 6 5 11 11 4 5 6 4 8 5 39 10 11 7 20 24
39 36 36 33 28 31 27 27 28 27 26 27 34 18 16 27 43 43 71 77 73 60 33 14 10 7 6 5 4 1 5 6 7 6 5 8 3 10 4 7 8 19 36 43 47 61 61
Wind_Direction_850mb
349 348 346 342 339 337 332 330 328 327 325 324 324 322 320 319 316 314 313 316 319 318 317 317 317 316 320 287 267 304 266 267 204 195 199 203 168 170 181 201 240 208 168 185 154 152 146
345 343 342 340 339 337 337 334 329 326 324 323 324 323 319 317 316 313 310 311 314 314 313 314 311 307 305 266 290 309 238 232 200 197 200 199 201 207 261 254 256 155 145 134 153 159 148
343 339 336 334 334 334 333 331 329 327 323 322 323 323 321 317 314 312 310 310 313 310 310 311 305 298 282 271 281 272 234 197 213 211 210 206 209 243 10 319 337 134 97 78 117 151 122
343 340 338 336 333 330 327 326 326 326 325 321 320 320 318 318 316 312 309 312 311 308 307 304 299 288 265 287 260 239 207 206 228 219 222 221 223 251 202 294 66 96 39 141 227 169 167
343 339 337 335 334 332 328 325 323 322 323 322 319 317 316 316 316 313 310 314 309 305 303 297 296 289 266 269 257 209 208 221 224 219 219 217 223 213 164 106 33 52 171 212 182 206 139
341 340 336 332 332 332 328 326 325 323 321 320 319 317 318 317 316 313 313 316 311 305 299 295 264 287 260 292 337 317 233 218 226 201 214 228 206 139 61 115 176 180 189 208 170 201 183
338 338 337 335 332 329 327 326 323 322 323 321 319 318 318 318 317 315 317 332 340 322 307 267 269 272 278 275 288 274 247 215 224 186 162 194 143 195 197 185 147 152 186 204 203 179 130
338 335 333 333 332 328 325 325 323 322 323 322 320 318 317 320 317 314 317 10 54 329 295 284 276 268 262 263 282 259 250 198 179 197 149 85 213 211 185 148 134 142 178 203 321 166 96
337 335 333 333 332 330 325 323 322 323 324 322 320 318 317 321 315 312 324 321 281 321 258 288 266 250 244 236 232 251 241 223 159 183 185 173 229 155 181 159 144 164 175 194 187 153 43
336 335 335 334 333 331 328 324 323 324 326 322 320 318 318 321 319 315 328 328 309 312 331 278 267 273 209 202 228 231 232 221 201 198 157 215 246 167 176 196 137 239 202 214 135 158 194
334 335 336 335 335 333 331 330 329 328 327 324 317 321 314 317 308 310 305 310 289 262 330 261 275 315 193 171 171 224 223 204 196 199 145 233 205 188 175 194 145 230 154 199 172 183 123
332 332 333 335 336 335 334 331 330 326 324 321 315 319 310 309 301 320 277 336 237 48 253 305 300 337 115 222 192 170 189 209 208 205 193 210 229 176 193 218 172 216 102 40 51 127 188
328 329 331 333 332 332 331 331 329 326 323 320 313 311 300 297 289 290 285 317 72 169 322 277 316 344 146 284 214 183 164 184 179 175 214 175 239 215 165 240 133 95 81 330 336 9 214
325 324 325 327 328 327 328 329 329 326 323 319 311 311 297 286 284 268 258 62 207 221 244 305 321 341 352 145 250 215 168 198 231 120 182 171 228 193 197 187 178 180 162 164 190 203 225
324 324 323 325 327 326 326 329 329 325 326 323 315 314 302 304 261 219 180 178 206 203 221 291 336 359 319 38 12 165 211 212 210 181 188 164 253 279 212 189 165 208 161 197 140 357 92
321 323 321 321 324 327 326 327 329 328 327 328 326 322 310 326 234 178 123 229 219 223 343 20 203 224 291 16 11 35 298 211 220 184 169 213 254 215 235 177 231 203 167 102 1 168 232
313 317 319 319 322 325 325 328 332 332 329 330 331 320 319 305 176 184 184 221 238 254 289 224 251 270 253 304 200 235 240 281 244 219 195 158 157 264 158 196 205 126 176 70 132 143 174
307 309 312 316 320 324 327 327 332 336 334 332 346 324 333 149 252 236 191 200 217 266 303 282 269 257 251 273 266 255 251 240 262 212 182 200 176 230 227 226 189 184 201 183 207 240 190
312 308 308 310 317 321 326 326 330 338 344 341 323 280 237 202 221 263 296 296 299 234 238 223 252 238 336 294 291 223 267 276 264 221 196 172 205 206 323 331 97 181 187 173 124 97 184
306 306 306 308 309 317 321 325 326 332 338 331 300 319 305 237 279 43 358 274 258 266 254 257 243 242 260 252 208 284 291 285 299 207 201 161 143 204 223 217 161 185 186 195 154 139 168
297 306 304 305 309 309 315 322 324 323 334 332 254 262 332 308 328 328 225 278 283 269 256 270 256 213 207 205 226 240 275 304 332 32 217 167 191 178 225 215 189 218 208 203 172 177 171
301 304 309 315 315 317 320 318 323 328 334 331 304 341 335 297 297 300 220 249 273 338 272 285 218 201 199 184 188 252 337 309 255 322 358 175 227 156 228 210 197 230 246 210 228 160 125
302 300 301 301 303 305 304 312 324 332 338 332 304 306 302 287 308 333 233 344 301 315 268 236 282 284 225 259 292 205 249 249 250 239 312 171 186 141 224 181 170 219 222 195 157 59 143
300 299 298 295 297 299 300 304 305 317 322 316 295 316 280 276 280 274 317 310 298 299 263 284 291 245 243 317 309 263 263 238 206 211 147 215 192 201 209 114 202 236 308 142 114 114 84
292 292 291 293 290 286 294 289 290 300 307 302 301 268 271 274 281 298 300 309 304 304 257 257 277 294 285 305 35 320 289 227 204 85 59 243 130 111 148 166 182 357 360 288 137 343 23
296 291 283 282 284 286 287 284 280 282 293 291 297 260 231 288 246 250 318 293 296 313 323 267 316 326 276 90 102 160 186 278 283 332 155 176 95 114 158 140 183 217 328 348 297 60 20
291 289 282 280 276 282 283 274 278 276 278 285 288 240 264 260 269 274 248 306 296 316 270 298 341 323 13 49 72 137 277 237 139 314 319 335 8 70 348 104 172 11 326 320 74 236 26
294 288 292 285 280 275 280 271 282 272 273 279 286 233 251 261 273 268 270 271 292 283 295 321 341 294 357 60 109 228 241 289 88 153 142 83 44 16 358 73 55 350 357 96 205 84 91
285 293 285 282 273 274 280 279 273 269 272 269 282 215 262 262 262 275 280 279 271 260 270 303 279 286 343 68 0 348 292 355 22 103 211 65 169 143 202 178 279 342 70 95 96 89 79